{"data":{"norad_id":53869,"epoch":"2026-05-25T02:38:37.093920Z","epoch_age_seconds":72354,"freshness":"FRESH","line1":"1 53869U 22114BD  26145.11015155  .00000154  00000+0  27742-4 0  9993","line2":"2 53869  53.2128 290.7236 0001277  92.4895 267.6243 15.08833492204792","mean_motion":15.08833492,"eccentricity":0.0001277,"inclination_deg":53.2128,"raan_deg":290.7236,"arg_perigee_deg":92.4895,"mean_anomaly_deg":267.6243,"bstar":2.7742e-5,"rev_number":20479,"period_min":95.437966325313,"perigee_km":538.87986552211,"apogee_km":540.64669725397,"semimajor_km":6917.900281388,"source":"CELESTRAK","updated_at":"2026-05-25T13:38:17.580414Z"}}